Time,TemperatureF,DewpointF,PressureIn,WindDirection,WindDirectionDegrees,WindSpeedMPH,WindSpeedGustMPH,Humidity,HourlyPrecipIn,Conditions,Clouds,dailyrainin,SoftwareType,DateUTC
2013-04-06 00:02:00,44.0,32.0,29.80,SSW,194,0.0,0.0,62,-99.99,,,-99.99,,2013-04-06 06:02:00,
2013-04-06 00:12:00,44.0,32.0,29.80,SSW,194,0.0,0.0,62,-99.99,,,-99.99,,2013-04-06 06:12:00,
2013-04-06 00:22:00,45.0,32.0,29.80,SW,214,2.0,0.0,59,-99.99,,,-99.99,,2013-04-06 06:22:00,
2013-04-06 00:32:00,45.0,32.0,29.80,East,96,1.0,0.0,59,-99.99,,,-99.99,,2013-04-06 06:32:00,
2013-04-06 00:42:00,45.0,32.0,29.80,East,96,1.0,0.0,59,-99.99,,,-99.99,,2013-04-06 06:42:00,
2013-04-06 00:52:00,46.0,32.0,29.81,West,277,0.0,0.0,58,-99.99,,,-99.99,,2013-04-06 06:52:00,
2013-04-06 01:02:00,45.0,32.0,29.81,NNE,32,1.0,0.0,61,-99.99,,,-99.99,,2013-04-06 07:02:00,
2013-04-06 01:12:00,45.0,32.0,29.81,NNE,32,1.0,0.0,61,-99.99,,,-99.99,,2013-04-06 07:12:00,
2013-04-06 01:22:00,44.0,33.0,29.82,North,357,0.0,0.0,64,-99.99,,,-99.99,,2013-04-06 07:22:00,
2013-04-06 01:32:00,44.0,33.0,29.82,North,357,0.0,0.0,64,-99.99,,,-99.99,,2013-04-06 07:32:00,
2013-04-06 01:42:00,44.0,33.0,29.82,North,357,0.0,0.0,64,-99.99,,,-99.99,,2013-04-06 07:42:00,
2013-04-06 01:52:00,42.0,33.0,29.82,North,351,0.0,0.0,69,-99.99,,,-99.99,,2013-04-06 07:52:00,
2013-04-06 02:02:00,41.0,32.0,29.82,NE,44,0.0,0.0,70,-99.99,,,-99.99,,2013-04-06 08:02:00,
2013-04-06 02:12:00,41.0,32.0,29.82,NE,44,0.0,0.0,70,-99.99,,,-99.99,,2013-04-06 08:12:00,
2013-04-06 02:22:00,40.0,31.0,29.82,NE,44,0.0,0.0,71,-99.99,,,-99.99,,2013-04-06 08:22:00,
2013-04-06 02:32:00,38.0,30.0,29.83,NE,47,0.0,0.0,72,-99.99,,,-99.99,,2013-04-06 08:32:00,
2013-04-06 02:42:00,38.0,30.0,29.83,NE,47,0.0,0.0,72,-99.99,,,-99.99,,2013-04-06 08:42:00,
2013-04-06 02:52:00,37.0,30.0,29.83,SSE,159,0.0,0.0,77,-99.99,,,-99.99,,2013-04-06 08:52:00,
2013-04-06 03:02:00,36.0,29.0,29.82,ENE,78,1.0,0.0,76,-99.99,,,-99.99,,2013-04-06 09:02:00,
2013-04-06 03:12:00,36.0,29.0,29.82,ENE,78,1.0,0.0,76,-99.99,,,-99.99,,2013-04-06 09:12:00,
2013-04-06 03:22:00,36.0,29.0,29.82,ENE,78,1.0,0.0,76,-99.99,,,-99.99,,2013-04-06 09:22:00,
2013-04-06 03:32:00,36.0,29.0,29.82,SSW,194,1.0,0.0,74,-99.99,,,-99.99,,2013-04-06 09:32:00,
2013-04-06 03:42:00,36.0,29.0,29.82,SSW,194,1.0,0.0,74,-99.99,,,-99.99,,2013-04-06 09:42:00,
2013-04-06 03:53:00,36.0,29.0,29.82,SSW,194,1.0,0.0,74,-99.99,,,-99.99,,2013-04-06 09:53:00,
2013-04-06 04:02:00,33.0,28.0,29.81,SSW,208,1.0,0.0,80,-99.99,,,-99.99,,2013-04-06 10:02:00,
2013-04-06 04:12:00,33.0,28.0,29.81,SSW,208,1.0,0.0,80,-99.99,,,-99.99,,2013-04-06 10:12:00,
2013-04-06 04:22:00,33.0,28.0,29.81,SSW,208,0.0,0.0,81,-99.99,,,-99.99,,2013-04-06 10:22:00,
2013-04-06 04:32:00,32.0,27.0,29.81,SE,124,0.0,0.0,83,-99.99,,,-99.99,,2013-04-06 10:32:00,
2013-04-06 04:52:00,32.0,27.0,29.81,SE,124,0.0,0.0,82,-99.99,,,-99.99,,2013-04-06 10:52:00,
2013-04-06 05:02:00,32.0,27.0,29.81,NW,317,0.0,0.0,82,-99.99,,,-99.99,,2013-04-06 11:02:00,
2013-04-06 05:22:00,31.0,26.0,29.81,NNW,340,0.0,0.0,83,-99.99,,,-99.99,,2013-04-06 11:22:00,
2013-04-06 05:32:00,31.0,27.0,29.82,WNW,297,0.0,0.0,84,-99.99,,,-99.99,,2013-04-06 11:32:00,
2013-04-06 05:52:00,31.0,26.0,29.83,SSE,166,0.0,0.0,82,-99.99,,,-99.99,,2013-04-06 11:52:00,
2013-04-06 06:02:00,31.0,26.0,29.82,NW,323,0.0,0.0,80,-99.99,,,-99.99,,2013-04-06 12:02:00,
2013-04-06 06:12:00,31.0,26.0,29.82,NW,323,0.0,0.0,80,-99.99,,,-99.99,,2013-04-06 12:12:00,
2013-04-06 06:21:00,31.0,26.0,29.82,NW,323,0.0,0.0,80,-99.99,,,-99.99,,2013-04-06 12:21:00,
2013-04-06 06:32:00,31.0,26.0,29.82,NW,323,0.0,0.0,80,-99.99,,,-99.99,,2013-04-06 12:32:00,
2013-04-06 06:52:00,30.0,26.0,29.83,East,91,0.0,0.0,84,-99.99,,,-99.99,,2013-04-06 12:52:00,
2013-04-06 07:02:00,29.0,25.0,29.84,East,91,0.0,0.0,85,-99.99,,,-99.99,,2013-04-06 13:02:00,
2013-04-06 07:23:00,29.0,26.0,29.85,ESE,107,0.0,0.0,87,-99.99,,,-99.99,,2013-04-06 13:23:00,
2013-04-06 07:32:00,29.0,26.0,29.85,NW,315,0.0,0.0,87,-99.99,,,-99.99,,2013-04-06 13:32:00,
2013-04-06 08:03:00,30.0,27.0,29.86,NW,315,0.0,0.0,88,-99.99,,,-99.99,,2013-04-06 14:03:00,
2013-04-06 08:12:00,30.0,27.0,29.86,NW,315,0.0,0.0,88,-99.99,,,-99.99,,2013-04-06 14:12:00,
2013-04-06 08:22:00,30.0,27.0,29.86,NW,315,0.0,0.0,88,-99.99,,,-99.99,,2013-04-06 14:22:00,
2013-04-06 08:32:00,34.0,29.0,29.88,South,188,0.0,0.0,81,-99.99,,,-99.99,,2013-04-06 14:32:00,
2013-04-06 08:43:00,34.0,29.0,29.88,South,188,0.0,0.0,81,-99.99,,,-99.99,,2013-04-06 14:43:00,
2013-04-06 08:53:00,36.0,30.0,29.88,South,188,0.0,0.0,79,-99.99,,,-99.99,,2013-04-06 14:53:00,
2013-04-06 09:02:00,41.0,31.0,29.87,SE,131,0.0,0.0,67,-99.99,,,-99.99,,2013-04-06 15:02:00,
2013-04-06 09:12:00,41.0,31.0,29.87,SE,131,0.0,0.0,67,-99.99,,,-99.99,,2013-04-06 15:12:00,
2013-04-06 09:22:00,41.0,31.0,29.87,SE,131,0.0,0.0,67,-99.99,,,-99.99,,2013-04-06 15:22:00,
2013-04-06 09:32:00,46.0,29.0,29.86,SSE,149,0.0,0.0,52,-99.99,,,-99.99,,2013-04-06 15:32:00,
2013-04-06 09:42:00,46.0,29.0,29.86,SSE,149,0.0,0.0,52,-99.99,,,-99.99,,2013-04-06 15:42:00,
2013-04-06 09:53:00,48.0,31.0,29.85,SE,146,1.0,0.0,51,-99.99,,,-99.99,,2013-04-06 15:53:00,
2013-04-06 10:04:00,50.0,32.0,29.85,SE,141,1.0,0.0,49,-99.99,,,-99.99,,2013-04-06 16:04:00,
2013-04-06 10:16:00,50.0,32.0,29.85,SE,141,1.0,0.0,49,-99.99,,,-99.99,,2013-04-06 16:16:00,
2013-04-06 10:22:00,50.0,32.0,29.85,SE,141,1.0,0.0,49,-99.99,,,-99.99,,2013-04-06 16:22:00,
2013-04-06 10:32:00,51.0,31.0,29.84,NE,39,2.0,0.0,46,-99.99,,,-99.99,,2013-04-06 16:32:00,
2013-04-06 10:43:00,51.0,31.0,29.84,NE,39,2.0,0.0,46,-99.99,,,-99.99,,2013-04-06 16:43:00,
2013-04-06 10:53:00,51.0,31.0,29.84,NE,39,2.0,0.0,46,-99.99,,,-99.99,,2013-04-06 16:53:00,
2013-04-06 11:02:00,52.0,30.0,29.83,East,80,1.0,0.0,42,-99.99,,,-99.99,,2013-04-06 17:02:00,
2013-04-06 11:12:00,52.0,30.0,29.83,East,80,1.0,0.0,42,-99.99,,,-99.99,,2013-04-06 17:12:00,
2013-04-06 11:22:00,54.0,31.0,29.83,NE,37,6.0,0.0,41,-99.99,,,-99.99,,2013-04-06 17:22:00,
2013-04-06 11:32:00,55.0,29.0,29.83,NE,40,4.0,0.0,37,-99.99,,,-99.99,,2013-04-06 17:32:00,
2013-04-06 11:42:00,55.0,29.0,29.83,NE,40,4.0,0.0,37,-99.99,,,-99.99,,2013-04-06 17:42:00,
2013-04-06 11:52:00,55.0,26.0,29.83,WNW,301,2.0,0.0,33,-99.99,,,-99.99,,2013-04-06 17:52:00,
2013-04-06 12:02:00,57.0,21.0,29.84,NW,307,6.0,14.0,24,-99.99,,,-99.99,,2013-04-06 18:02:00,
2013-04-06 12:12:00,57.0,21.0,29.84,NW,307,6.0,14.0,24,-99.99,,,-99.99,,2013-04-06 18:12:00,
2013-04-06 12:22:00,58.0,22.0,29.83,WNW,284,7.0,13.0,25,-99.99,,,-99.99,,2013-04-06 18:22:00,
2013-04-06 12:32:00,59.0,22.0,29.83,West,263,4.0,0.0,24,-99.99,,,-99.99,,2013-04-06 18:32:00,
2013-04-06 12:42:00,59.0,22.0,29.83,West,263,4.0,0.0,24,-99.99,,,-99.99,,2013-04-06 18:42:00,
2013-04-06 12:52:00,59.0,22.0,29.83,WSW,252,4.0,0.0,24,-99.99,,,-99.99,,2013-04-06 18:52:00,
2013-04-06 13:02:00,61.0,22.0,29.82,SW,225,5.0,0.0,22,-99.99,,,-99.99,,2013-04-06 19:02:00,
2013-04-06 13:12:00,61.0,22.0,29.82,SW,225,5.0,0.0,22,-99.99,,,-99.99,,2013-04-06 19:12:00,
2013-04-06 13:22:00,61.0,21.0,29.83,NW,316,4.0,13.0,21,-99.99,,,-99.99,,2013-04-06 19:22:00,
2013-04-06 13:32:00,60.0,15.0,29.82,WNW,297,7.0,0.0,17,-99.99,,,-99.99,,2013-04-06 19:32:00,
2013-04-06 13:42:00,60.0,15.0,29.82,WNW,297,7.0,0.0,17,-99.99,,,-99.99,,2013-04-06 19:42:00,
2013-04-06 13:52:00,62.0,14.0,29.82,West,262,4.0,0.0,15,-99.99,,,-99.99,,2013-04-06 19:52:00,
2013-04-06 14:02:00,62.0,9.0,29.81,West,259,8.0,0.0,12,-99.99,,,-99.99,,2013-04-06 20:02:00,
2013-04-06 14:12:00,62.0,9.0,29.81,West,259,8.0,0.0,12,-99.99,,,-99.99,,2013-04-06 20:12:00,
2013-04-06 14:22:00,62.0,9.0,29.81,WNW,293,5.0,0.0,12,-99.99,,,-99.99,,2013-04-06 20:22:00,
2013-04-06 14:32:00,61.0,11.0,29.81,West,264,6.0,0.0,14,-99.99,,,-99.99,,2013-04-06 20:32:00,
2013-04-06 14:42:00,61.0,11.0,29.81,West,264,6.0,0.0,14,-99.99,,,-99.99,,2013-04-06 20:42:00,
2013-04-06 14:52:00,61.0,11.0,29.80,WNW,293,4.0,14.0,14,-99.99,,,-99.99,,2013-04-06 20:52:00,
2013-04-06 15:02:00,62.0,12.0,29.80,WSW,238,5.0,0.0,14,-99.99,,,-99.99,,2013-04-06 21:02:00,
2013-04-06 15:12:00,61.0,11.0,29.79,West,277,6.0,0.0,14,-99.99,,,-99.99,,2013-04-06 21:12:00,
2013-04-06 15:22:00,61.0,11.0,29.79,West,277,6.0,0.0,14,-99.99,,,-99.99,,2013-04-06 21:22:00,
2013-04-06 15:33:00,62.0,12.0,29.78,WSW,242,3.0,0.0,14,-99.99,,,-99.99,,2013-04-06 21:33:00,
2013-04-06 15:43:00,62.0,12.0,29.78,WSW,242,3.0,0.0,14,-99.99,,,-99.99,,2013-04-06 21:43:00,
2013-04-06 15:52:00,61.0,14.0,29.77,NW,308,7.0,0.0,16,-99.99,,,-99.99,,2013-04-06 21:52:00,
2013-04-06 16:02:00,61.0,14.0,29.76,NW,308,6.0,13.0,16,-99.99,,,-99.99,,2013-04-06 22:02:00,
2013-04-06 16:12:00,61.0,14.0,29.76,NW,308,6.0,13.0,16,-99.99,,,-99.99,,2013-04-06 22:12:00,
2013-04-06 16:22:00,62.0,14.0,29.75,NW,310,5.0,0.0,15,-99.99,,,-99.99,,2013-04-06 22:22:00,
2013-04-06 16:33:00,60.0,15.0,29.75,West,271,5.0,0.0,17,-99.99,,,-99.99,,2013-04-06 22:33:00,
2013-04-06 16:42:00,60.0,15.0,29.75,West,271,5.0,0.0,17,-99.99,,,-99.99,,2013-04-06 22:42:00,
2013-04-06 16:52:00,61.0,16.0,29.74,West,259,3.0,0.0,17,-99.99,,,-99.99,,2013-04-06 22:52:00,
2013-04-06 17:02:00,61.0,14.0,29.74,NNE,16,2.0,0.0,16,-99.99,,,-99.99,,2013-04-06 23:02:00,
2013-04-06 17:12:00,61.0,14.0,29.74,NNE,16,2.0,0.0,16,-99.99,,,-99.99,,2013-04-06 23:12:00,
2013-04-06 17:22:00,60.0,16.0,29.74,WNW,284,1.0,0.0,18,-99.99,,,-99.99,,2013-04-06 23:22:00,
2013-04-06 17:33:00,59.0,17.0,29.74,North,360,4.0,0.0,19,-99.99,,,-99.99,,2013-04-06 23:33:00,
2013-04-06 17:42:00,59.0,17.0,29.74,North,360,4.0,0.0,19,-99.99,,,-99.99,,2013-04-06 23:42:00,
2013-04-06 17:52:00,60.0,18.0,29.73,NW,304,3.0,0.0,19,-99.99,,,-99.99,,2013-04-06 23:52:00,
2013-04-06 18:02:00,59.0,17.0,29.73,WNW,302,4.0,0.0,19,-99.99,,,-99.99,,2013-04-07 00:02:00,
2013-04-06 18:11:00,59.0,17.0,29.73,WNW,302,4.0,0.0,19,-99.99,,,-99.99,,2013-04-07 00:11:00,
2013-04-06 18:22:00,58.0,17.0,29.72,NW,317,4.0,0.0,20,-99.99,,,-99.99,,2013-04-07 00:22:00,
2013-04-06 18:32:00,58.0,17.0,29.72,NW,317,4.0,0.0,20,-99.99,,,-99.99,,2013-04-07 00:32:00,
2013-04-06 18:42:00,58.0,17.0,29.72,NW,317,4.0,0.0,20,-99.99,,,-99.99,,2013-04-07 00:42:00,
2013-04-06 18:52:00,58.0,17.0,29.72,NW,317,4.0,0.0,20,-99.99,,,-99.99,,2013-04-07 00:52:00,
2013-04-06 19:02:00,57.0,17.0,29.72,West,276,1.0,0.0,21,-99.99,,,-99.99,,2013-04-07 01:02:00,
2013-04-06 19:12:00,57.0,17.0,29.72,West,276,1.0,0.0,21,-99.99,,,-99.99,,2013-04-07 01:12:00,
2013-04-06 19:22:00,57.0,17.0,29.72,West,276,1.0,0.0,21,-99.99,,,-99.99,,2013-04-07 01:22:00,
2013-04-06 19:32:00,55.0,17.0,29.73,WSW,239,3.0,0.0,22,-99.99,,,-99.99,,2013-04-07 01:32:00,
2013-04-06 19:43:00,55.0,17.0,29.73,WSW,239,3.0,0.0,22,-99.99,,,-99.99,,2013-04-07 01:43:00,
2013-04-06 19:53:00,55.0,19.0,29.73,West,269,1.0,0.0,24,-99.99,,,-99.99,,2013-04-07 01:53:00,
2013-04-06 20:02:00,54.0,18.0,29.73,West,271,1.0,0.0,24,-99.99,,,-99.99,,2013-04-07 02:02:00,
2013-04-06 20:12:00,54.0,18.0,29.73,West,271,1.0,0.0,24,-99.99,,,-99.99,,2013-04-07 02:12:00,
2013-04-06 20:22:00,54.0,22.0,29.75,SW,225,2.0,0.0,28,-99.99,,,-99.99,,2013-04-07 02:22:00,
2013-04-06 20:32:00,53.0,27.0,29.78,WSW,249,3.0,13.0,36,-99.99,,,-99.99,,2013-04-07 02:32:00,
2013-04-06 20:42:00,53.0,27.0,29.78,WSW,249,3.0,13.0,36,-99.99,,,-99.99,,2013-04-07 02:42:00,
2013-04-06 20:52:00,53.0,27.0,29.78,WSW,249,3.0,13.0,36,-99.99,,,-99.99,,2013-04-07 02:52:00,
2013-04-06 21:02:00,50.0,29.0,29.80,WNW,294,5.0,13.0,44,-99.99,,,-99.99,,2013-04-07 03:02:00,
2013-04-06 21:22:00,48.0,32.0,29.80,NE,40,11.0,18.0,54,-99.99,,,-99.99,,2013-04-07 03:22:00,
2013-04-06 21:33:00,46.0,33.0,29.81,NNE,18,8.0,15.0,60,-99.99,,,-99.99,,2013-04-07 03:33:00,
2013-04-06 22:03:00,46.0,32.0,29.82,SE,135,4.0,0.0,57,-99.99,,,-99.99,,2013-04-07 04:03:00,
2013-04-06 22:13:00,46.0,32.0,29.82,SE,135,4.0,0.0,57,-99.99,,,-99.99,,2013-04-07 04:13:00,
2013-04-06 22:23:00,46.0,32.0,29.83,SSE,158,3.0,0.0,58,-99.99,,,-99.99,,2013-04-07 04:23:00,
2013-04-06 22:32:00,46.0,32.0,29.83,WSW,239,0.0,0.0,58,-99.99,,,-99.99,,2013-04-07 04:32:00,
2013-04-06 22:43:00,46.0,32.0,29.83,WSW,239,0.0,0.0,58,-99.99,,,-99.99,,2013-04-07 04:43:00,
2013-04-06 22:52:00,46.0,32.0,29.82,ENE,70,2.0,0.0,59,-99.99,,,-99.99,,2013-04-07 04:52:00,
2013-04-06 23:02:00,46.0,32.0,29.82,NE,43,0.0,0.0,58,-99.99,,,-99.99,,2013-04-07 05:02:00,
2013-04-06 23:12:00,46.0,32.0,29.82,NE,43,0.0,0.0,58,-99.99,,,-99.99,,2013-04-07 05:12:00,
2013-04-06 23:22:00,46.0,33.0,29.82,East,80,3.0,0.0,60,-99.99,,,-99.99,,2013-04-07 05:22:00,
2013-04-06 23:32:00,45.0,33.0,29.82,SE,134,1.0,0.0,62,-99.99,,,-99.99,,2013-04-07 05:32:00,
2013-04-06 23:42:00,45.0,33.0,29.82,SE,134,1.0,0.0,62,-99.99,,,-99.99,,2013-04-07 05:42:00,
2013-04-06 23:52:00,45.0,33.0,29.82,SE,134,1.0,0.0,62,-99.99,,,-99.99,,2013-04-07 05:52:00,